Regional Weather Roundup
Issued by NWS

Home | Current Version | Previous Version | Graphics & Text | Print | Product List | Glossary On
Versions: 1 2 3 4 5 6 7 8 9 10 11 12 13 14 15 16 17 18 19 20 21 22 23 24 25 26 27 28 29 30 31 32 33 34 35 36 37 38 39 40 41 42 43 44 45 46 47 48 49 50
000
ASUS45 KCYS 221510
RWRWY

WYOMING REGIONAL WEATHER ROUNDUP
NATIONAL WEATHER SERVICE CHEYENNE WY
900 AM MDT TUE JUL 22 2014

NOTE:  "FAIR" INDICATES FEW OR NO CLOUDS BELOW 12,000 FEET
WITH NO SIGNIFICANT WEATHER AND/OR OBSTRUCTIONS TO VISIBILITY.

WYZ001-221600-
YELLOWSTONE NATIONAL PARK

CITY           SKY/WX    TMP DP  RH WIND       PRES   REMARKS
LK YELLOWSTONE   N/A     58  46  64 CALM      30.49R
W YELLOWSTONE  NOT AVBL

$$
WYZ002>013-054>058-071-098>099-221600-
NORTHERN WYOMING

CITY           SKY/WX    TMP DP  RH WIND       PRES   REMARKS
JACKSON        SUNNY     57  46  67 CALM      30.41R
CODY           SUNNY     73  45  35 SW5       30.25R
GREYBULL       MOSUNNY   72  54  53 E7        30.20R
WORLAND        MOSUNNY   77  46  33 E3        30.21F
SHERIDAN       PTSUNNY   62  57  83 SE3       30.21S
BUFFALO        PTSUNNY   73  50  44 SE8       30.28R
GILLETTE       MOSUNNY   75  56  51 CALM      30.25R
HULETT         FAIR      70  61  73 MISG      30.26
NEWCASTLE      FAIR      72  54  53 SE9       30.28

$$
WYZ014>020-022>026-101>103-221600-
CENTRAL WYOMING

CITY           SKY/WX    TMP DP  RH WIND       PRES   REMARKS
BIG PINEY      SUNNY     63  39  41 CALM      30.45R
PINEDALE       SUNNY     61  41  48 CALM      30.45S
DUBOIS         FAIR      61  37  41 NW9       30.44R
LANDER         SUNNY     70  40  33 CALM      30.33R
RIVERTON       SUNNY     67  47  48 CALM      30.32R
CASPER         SUNNY     70  52  52 W5        30.31S
DOUGLAS        SUNNY     76  56  49 S16G22    30.31S

$$
WYZ021-027>030-104>119-221600-
SOUTHERN WYOMING

CITY           SKY/WX    TMP DP  RH WIND       PRES   REMARKS
EVANSTON       SUNNY     65  38  36 CALM      30.43R
KEMMERER       SUNNY     61  41  48 CALM      30.45R
FORT BRIDGER   FAIR      66  38  35 N3        30.46R
ROCK SPRINGS   SUNNY     67  34  29 CALM      30.41R
DIXON          FAIR      68  35  29 SE3       30.43R
RAWLINS        SUNNY     68  38  33 E7        30.41S
SARATOGA       FAIR      64  37  36 SE7       30.44S
LARAMIE        SUNNY     65  44  46 S3        30.45S
CHEYENNE       SUNNY     68  55  63 NW12G21   30.38R
TORRINGTON     SUNNY     73  59  61 S5        30.25S
PINE BLUFFS    FAIR      70  57  64 N9        30.32R

$$


USA.gov is the U.S. government's official web portal to all federal, state and local government web resources and services.